Cambridge, MN

3:28 AM CDT on May 23, 2018 (GMT -0500)
Cambridge Municipal

Weather History for KCBG - September, 2013

Change the Weather History Date:

Thursday, September 5, 2013

  Actual Average Record
Temperature  
Mean Temperature 60 °F -  
Max Temperature 84 °F 74 °F 94 °F (1960)
Min Temperature 37 °F 52 °F 36 °F (1962)
Degree Days  
Heating Degree Days 4    
Growing Degree Days 10 (Base 50)    
Moisture  
Dew Point 54 °F    
Average Humidity 62    
Maximum Humidity 87    
Minimum Humidity 42    
Precipitation  
Precipitation 0.00 in - - ()
Sea Level Pressure  
Sea Level Pressure 30.17 in    
Wind  
Wind Speed 2 mph (ESE)    
Max Wind Speed 9 mph    
Max Gust Speed -    
Visibility 10 miles    
Events Rain    
Averages and records for this station are not official NWS values.
T = Trace of Precipitation, MM = Missing Value Source: NWS Daily Summary

Daily Weather History Graph

Daily Weather History Graph

Search for Another Location

Airport or City:

Astronomy

Sep. 05, 2013 Rise Set
Actual Time 6:39 AM CDT 7:42 PM CDT
Civil Twilight 6:09 AM CDT 8:13 PM CDT
Nautical Twilight 5:32 AM CDT 8:49 PM CDT
Astronomical Twilight 4:54 AM CDT 9:27 PM CDT
Moon 6:55 AM CDT (9/5) 7:30 PM CDT (9/5)
Length of Visible Light 14h 03m
Length of Day
13h 03m
New Moon, 0% of the Moon is Illuminated
Sep 5
New Moon
Sep 12
First Quarter
Sep 19
Full
Sep 26
Last Quarter
Oct 4
New

Hourly Weather History & Observations

Time (CDT) Temp. Windchill Dew Point Humidity Pressure Visibility Wind Dir Wind Speed Gust Speed Precip Events Conditions
12:01 AM 64.4 °F - 53.6 °F 68% 30.17 in 10.0 mi NE 2.3 mph - N/A   Clear
12:21 AM 64.4 °F - 51.8 °F 64% 30.16 in 10.0 mi Calm Calm - N/A   Clear
12:41 AM 59.0 °F - 50.0 °F 72% 30.17 in 10.0 mi Calm Calm - N/A   Clear
1:01 AM 59.0 °F - 50.0 °F 72% 30.17 in 10.0 mi Calm Calm - N/A   Clear
1:21 AM 57.2 °F - 48.2 °F 72% 30.18 in 10.0 mi Calm Calm - N/A   Clear
1:41 AM 57.2 °F - 50.0 °F 77% 30.18 in 10.0 mi Calm Calm - N/A   Clear
2:01 AM 55.4 °F - 48.2 °F 77% 30.18 in 10.0 mi Calm Calm - N/A   Clear
2:21 AM 55.4 °F - 48.2 °F 77% 30.18 in 10.0 mi Calm Calm - N/A   Clear
2:41 AM 55.4 °F - 48.2 °F 77% 30.18 in 10.0 mi Calm Calm - N/A   Clear
3:01 AM 53.6 °F - 46.4 °F 77% 30.18 in 10.0 mi Calm Calm - N/A   Clear
3:21 AM 55.4 °F - 46.4 °F 72% 30.18 in 10.0 mi Calm Calm - N/A   Clear
3:41 AM 53.6 °F - 46.4 °F 77% 30.18 in 10.0 mi Calm Calm - N/A   Clear
4:01 AM 53.6 °F - 46.4 °F 77% 30.19 in 10.0 mi Calm Calm - N/A   Clear
4:21 AM 51.8 °F - 44.6 °F 76% 30.20 in 10.0 mi Calm Calm - N/A   Clear
5:01 AM 51.8 °F - 44.6 °F 76% 30.20 in 10.0 mi Calm Calm - N/A   Clear
5:21 AM 55.4 °F - 48.2 °F 77% 30.20 in 10.0 mi NE 1.2 mph - N/A   Clear
5:41 AM 55.4 °F - 48.2 °F 77% 30.20 in 10.0 mi NE 2.3 mph - N/A   Clear
6:01 AM 55.4 °F - 48.2 °F 77% 30.21 in 10.0 mi NE 2.3 mph - N/A   Clear
6:21 AM 55.4 °F - 46.4 °F 72% 30.21 in 10.0 mi NE 2.3 mph - N/A   Clear
6:41 AM 55.4 °F - 46.4 °F 72% 30.22 in 10.0 mi NE 1.2 mph - N/A   Clear
7:21 AM 55.4 °F - 46.4 °F 72% 30.22 in 10.0 mi NE 1.2 mph - N/A   Clear
7:41 AM 55.4 °F - 48.2 °F 77% 30.23 in 10.0 mi Calm Calm - N/A   Clear
8:01 AM 57.2 °F - 48.2 °F 72% 30.23 in 10.0 mi Calm Calm - N/A   Clear
8:21 AM 60.8 °F - 48.2 °F 63% 30.22 in 10.0 mi ENE 2.3 mph - N/A   Clear
8:41 AM 62.6 °F - 48.2 °F 59% 30.23 in 10.0 mi East 3.5 mph - N/A   Clear
9:01 AM 64.4 °F - 48.2 °F 56% 30.23 in 10.0 mi ENE 2.3 mph - N/A   Clear
9:21 AM 66.2 °F - 48.2 °F 52% 30.23 in 10.0 mi East 3.5 mph - N/A   Clear
9:41 AM 66.2 °F - 48.2 °F 52% 30.23 in 10.0 mi East 2.3 mph - N/A   Clear
10:01 AM 69.8 °F - 51.8 °F 53% 30.23 in 10.0 mi East 5.8 mph - N/A   Clear
10:21 AM 69.8 °F - 51.8 °F 53% 30.22 in 10.0 mi East 5.8 mph - N/A   Clear
10:41 AM 71.6 °F - 53.6 °F 53% 30.22 in 10.0 mi ESE 6.9 mph - N/A   Clear
11:01 AM 73.4 °F - 53.6 °F 50% 30.23 in 10.0 mi SE 5.8 mph - N/A   Clear
11:21 AM 73.4 °F - 55.4 °F 53% 30.23 in 10.0 mi East 5.8 mph - N/A   Clear
11:41 AM 75.2 °F - 55.4 °F 50% 30.22 in 10.0 mi NE 4.6 mph - N/A   Clear
12:01 PM 75.2 °F - 55.4 °F 50% 30.22 in 10.0 mi East 3.5 mph - N/A   Clear
12:21 PM 77.0 °F - 57.2 °F 50% 30.22 in 10.0 mi East 5.8 mph - N/A   Clear
12:41 PM 78.8 °F - 55.4 °F 44% 30.22 in 10.0 mi ESE 5.8 mph - N/A   Clear
1:01 PM 78.8 °F - 57.2 °F 47% 30.21 in 10.0 mi South 3.5 mph - N/A   Clear
1:41 PM 80.6 °F - 57.2 °F 45% 30.19 in 10.0 mi East 4.6 mph - N/A   Clear
2:01 PM 82.4 °F - 57.2 °F 42% 30.19 in 10.0 mi East 5.8 mph - N/A   Clear
2:21 PM 82.4 °F - 60.8 °F 48% 30.18 in 10.0 mi East 5.8 mph - N/A   Clear
2:41 PM 82.4 °F - 60.8 °F 48% 30.18 in 10.0 mi ESE 8.1 mph - N/A   Clear
3:01 PM 82.4 °F - 60.8 °F 48% 30.17 in 10.0 mi SE 5.8 mph - N/A   Clear
3:35 PM 37.4 °F 30.8 °F 33.8 °F 87% 29.87 in 10.0 mi SW 9.2 mph - N/A Rain Light Rain
3:41 PM 84.2 °F - 62.6 °F 48% 30.16 in 10.0 mi ESE 5.8 mph - N/A   Clear
4:01 PM 84.2 °F - 62.6 °F 48% 30.15 in 10.0 mi ESE 6.9 mph - N/A   Clear
4:21 PM 84.2 °F - 62.6 °F 48% 30.15 in 10.0 mi ESE 6.9 mph - N/A   Clear
4:41 PM 82.4 °F - 62.6 °F 51% 30.15 in 10.0 mi ESE 6.9 mph - N/A   Clear
5:01 PM 84.2 °F - 62.6 °F 48% 30.14 in 10.0 mi SE 4.6 mph - N/A   Clear
5:21 PM 82.4 °F - 62.6 °F 51% 30.13 in 10.0 mi ESE 5.8 mph - N/A   Clear
5:41 PM 82.4 °F - 62.6 °F 51% 30.13 in 10.0 mi SE 4.6 mph - N/A   Clear
6:21 PM 80.6 °F - 62.6 °F 54% 30.13 in 10.0 mi SE 4.6 mph - N/A   Clear
6:41 PM 80.6 °F - 62.6 °F 54% 30.12 in 10.0 mi SE 3.5 mph - N/A   Clear
7:01 PM 78.8 °F - 62.6 °F 57% 30.12 in 10.0 mi ESE 2.3 mph - N/A   Clear
7:21 PM 78.8 °F - 60.8 °F 54% 30.12 in 10.0 mi ESE 2.3 mph - N/A   Clear
7:41 PM 77.0 °F - 60.8 °F 57% 30.12 in 10.0 mi ESE 2.3 mph - N/A   Clear
8:17 PM 75.2 °F - 60.8 °F 61% 30.11 in 10.0 mi ESE 2.3 mph - N/A   Clear
8:21 PM 75.2 °F - 60.8 °F 61% 30.11 in 10.0 mi ESE 2.3 mph - N/A   Clear
8:41 PM 73.4 °F - 59.0 °F 61% 30.11 in 10.0 mi ESE 2.3 mph - N/A   Clear
9:01 PM 73.4 °F - 59.0 °F 61% 30.12 in 10.0 mi ESE 4.6 mph - N/A   Clear
9:21 PM 73.4 °F - 59.0 °F 61% 30.12 in 10.0 mi SE 3.5 mph - N/A   Clear
9:53 PM 73.4 °F - 60.8 °F 65% 30.12 in 10.0 mi SE 3.5 mph - N/A   Clear
10:08 PM 73.4 °F - 60.8 °F 65% 30.11 in 10.0 mi SE 4.6 mph - N/A   Clear
10:21 PM 73.4 °F - 60.8 °F 65% 30.11 in 10.0 mi SE 4.6 mph - N/A   Clear
10:41 PM 73.4 °F - 60.8 °F 65% 30.10 in 10.0 mi SE 5.8 mph - N/A   Clear
11:01 PM 71.6 °F - 60.8 °F 69% 30.10 in 10.0 mi SSE 4.6 mph - N/A   Clear
11:21 PM 71.6 °F - 60.8 °F 69% 30.10 in 10.0 mi SSE 5.8 mph - N/A   Clear
11:41 PM 71.6 °F - 60.8 °F 69% 30.09 in 10.0 mi SSE 5.8 mph - N/A   Clear